Location: *
(42.0175°N, 9.4056°E)
Time: 15:45:46
(UTC+00:00)

BREEZE-M DEB (TANK) - Pass Details

Date: 25 August 2019
Orbit: 277 x 16856 km, 49.4° (Epoch: 17 September)

Event Time Altitude Azimuth Distance (km) Brightness Sun altitude
Rises 18:58:34 0° 304° (NW) 1,924 7.1 -9.6°
Reaches altitude 10° 19:00:05 10° 317° (NW) 1,187 5.3 -9.9°
Maximum altitude 19:02:08 34° 27° (NNE) 695 2.8 -10.3°
Enters shadow 19:05:28 12° 92° (E) 2,030 4.6 -10.8°
